Time,TemperatureF,DewpointF,PressureIn,WindDirection,WindDirectionDegrees,WindSpeedMPH,WindSpeedGustMPH,Humidity,HourlyPrecipIn,Conditions,Clouds,dailyrainin,SoftwareType,DateUTC
2013-03-28 00:00:00,41.1,31.7,30.20,East,81,0.0,8.0,69,0.00,OVC,,0.00,WeatherDisplay:10.37,2013-03-28 05:00:00,
2013-03-28 00:05:00,41.0,31.6,30.20,East,101,3.0,9.0,69,0.00,OVC,,0.00,WeatherDisplay:10.37,2013-03-28 05:05:00,
2013-03-28 00:10:00,40.9,31.5,30.20,East,101,3.0,8.0,69,0.00,OVC,,0.00,WeatherDisplay:10.37,2013-03-28 05:10:00,
2013-03-28 00:15:00,40.9,31.5,30.20,East,91,3.0,8.0,69,0.00,OVC,,0.00,WeatherDisplay:10.37,2013-03-28 05:15:00,
2013-03-28 00:20:00,40.7,31.3,30.20,East,94,2.0,8.0,69,0.00,OVC,,0.00,WeatherDisplay:10.37,2013-03-28 05:20:00,
2013-03-28 00:25:00,40.7,31.7,30.20,East,94,2.0,10.0,70,0.00,OVC,,0.00,WeatherDisplay:10.37,2013-03-28 05:25:00,
2013-03-28 00:30:00,40.7,31.6,30.20,ENE,74,1.0,7.0,70,0.00,OVC,,0.00,WeatherDisplay:10.37,2013-03-28 05:30:00,
2013-03-28 00:35:00,40.6,31.6,30.20,ENE,65,3.0,7.0,70,0.00,OVC,,0.00,WeatherDisplay:10.37,2013-03-28 05:35:00,
2013-03-28 00:40:00,40.4,31.4,30.20,ENE,73,2.0,6.0,70,0.00,OVC,,0.00,WeatherDisplay:10.37,2013-03-28 05:40:00,
2013-03-28 00:50:00,40.1,31.4,30.20,ENE,61,2.0,7.0,71,0.00,OVC,,0.00,WeatherDisplay:10.37,2013-03-28 05:50:00,
2013-03-28 00:55:00,40.1,31.8,30.20,ENE,62,2.0,7.0,72,0.00,OVC,,0.00,WeatherDisplay:10.37,2013-03-28 05:55:00,
2013-03-28 01:00:00,40.0,31.7,30.20,ENE,74,2.0,6.0,72,0.00,OVC,,0.00,WeatherDisplay:10.37,2013-03-28 06:00:00,
2013-03-28 01:05:00,40.0,31.7,30.20,ENE,75,2.0,6.0,72,0.00,OVC,,0.00,WeatherDisplay:10.37,2013-03-28 06:05:00,
2013-03-28 01:15:00,40.1,31.8,30.20,ENE,68,1.0,6.0,72,0.00,BKN,,0.00,WeatherDisplay:10.37,2013-03-28 06:15:00,
2013-03-28 01:20:00,40.1,32.1,30.20,ENE,67,2.0,6.0,73,0.00,BKN,,0.00,WeatherDisplay:10.37,2013-03-28 06:20:00,
2013-03-28 01:25:00,40.1,31.8,30.20,ENE,65,3.0,7.0,72,0.00,BKN,,0.00,WeatherDisplay:10.37,2013-03-28 06:25:00,
2013-03-28 01:30:00,40.1,32.1,30.20,ENE,65,2.0,5.0,73,0.00,BKN,,0.00,WeatherDisplay:10.37,2013-03-28 06:30:00,
2013-03-28 01:40:00,40.1,32.1,30.20,ENE,67,3.0,7.0,73,0.00,BKN,,0.00,WeatherDisplay:10.37,2013-03-28 06:40:00,
2013-03-28 01:45:00,40.1,32.1,30.20,ENE,69,2.0,5.0,73,0.00,BKN,,0.00,WeatherDisplay:10.37,2013-03-28 06:45:00,
2013-03-28 01:50:00,40.1,32.5,30.20,ENE,67,1.0,4.0,74,0.00,BKN,,0.00,WeatherDisplay:10.37,2013-03-28 06:50:00,
2013-03-28 01:55:00,40.1,32.1,30.20,ENE,58,2.0,6.0,73,0.00,BKN,,0.00,WeatherDisplay:10.37,2013-03-28 06:55:00,
2013-03-28 02:00:00,40.0,32.0,30.20,ENE,59,1.0,4.0,73,0.00,BKN,,0.00,WeatherDisplay:10.37,2013-03-28 07:00:00,
2013-03-28 02:05:00,40.0,32.4,30.20,ENE,68,2.0,5.0,74,0.00,SCT,,0.00,WeatherDisplay:10.37,2013-03-28 07:05:00,
2013-03-28 02:10:00,40.0,32.4,30.19,East,80,1.0,5.0,74,0.00,SCT,,0.00,WeatherDisplay:10.37,2013-03-28 07:10:00,
2013-03-28 02:15:00,40.0,32.4,30.20,East,82,2.0,6.0,74,0.00,SCT,,0.00,WeatherDisplay:10.37,2013-03-28 07:15:00,
2013-03-28 02:20:00,40.0,32.4,30.19,ENE,70,2.0,7.0,74,0.00,SCT,,0.00,WeatherDisplay:10.37,2013-03-28 07:20:00,
2013-03-28 02:30:00,40.1,32.5,30.19,ENE,68,1.0,5.0,74,0.00,SCT,,0.00,WeatherDisplay:10.37,2013-03-28 07:30:00,
2013-03-28 02:35:00,40.3,32.3,30.19,ENE,70,1.0,5.0,73,0.00,SCT,,0.00,WeatherDisplay:10.37,2013-03-28 07:35:00,
2013-03-28 02:40:00,40.3,32.3,30.19,ENE,72,1.0,7.0,73,0.00,SCT,,0.00,WeatherDisplay:10.37,2013-03-28 07:40:00,
2013-03-28 02:45:00,40.3,32.3,30.19,ENE,67,2.0,5.0,73,0.00,SCT,,0.00,WeatherDisplay:10.37,2013-03-28 07:45:00,
2013-03-28 02:50:00,40.3,32.3,30.19,ENE,65,1.0,6.0,73,0.00,SCT,,0.00,WeatherDisplay:10.37,2013-03-28 07:50:00,
2013-03-28 02:55:00,40.3,32.3,30.19,ENE,68,1.0,6.0,73,0.00,SCT,,0.00,WeatherDisplay:10.37,2013-03-28 07:55:00,
2013-03-28 03:00:00,40.1,32.1,30.19,ENE,71,2.0,6.0,73,0.00,SCT,,0.00,WeatherDisplay:10.37,2013-03-28 08:00:00,
2013-03-28 03:05:00,40.1,32.1,30.18,ENE,73,1.0,6.0,73,0.00,OVC,,0.00,WeatherDisplay:10.37,2013-03-28 08:05:00,
2013-03-28 03:10:00,40.1,32.1,30.18,East,87,2.0,9.0,73,0.00,OVC,,0.00,WeatherDisplay:10.37,2013-03-28 08:10:00,
2013-03-28 03:15:00,40.3,32.3,30.18,ENE,76,2.0,10.0,73,0.00,OVC,,0.00,WeatherDisplay:10.37,2013-03-28 08:15:00,
2013-03-28 03:20:00,40.3,32.3,30.18,ENE,66,2.0,6.0,73,0.00,OVC,,0.00,WeatherDisplay:10.37,2013-03-28 08:20:00,
2013-03-28 03:25:00,40.3,32.3,30.18,ENE,65,5.0,9.0,73,0.00,OVC,,0.00,WeatherDisplay:10.37,2013-03-28 08:25:00,
2013-03-28 03:35:00,40.4,32.4,30.18,ENE,67,2.0,7.0,73,0.00,OVC,,0.00,WeatherDisplay:10.37,2013-03-28 08:35:00,
2013-03-28 03:40:00,40.4,32.4,30.18,ENE,68,2.0,9.0,73,0.00,OVC,,0.00,WeatherDisplay:10.37,2013-03-28 08:40:00,
2013-03-28 03:45:00,40.4,32.4,30.18,ENE,72,3.0,7.0,73,0.00,OVC,,0.00,WeatherDisplay:10.37,2013-03-28 08:45:00,
2013-03-28 03:50:00,40.4,32.4,30.18,ENE,63,3.0,7.0,73,0.00,OVC,,0.00,WeatherDisplay:10.37,2013-03-28 08:50:00,
2013-03-28 03:55:00,40.4,32.4,30.18,ENE,60,2.0,7.0,73,0.00,OVC,,0.00,WeatherDisplay:10.37,2013-03-28 08:55:00,
2013-03-28 04:05:00,40.3,32.3,30.17,ENE,78,3.0,8.0,73,0.00,OVC,,0.00,WeatherDisplay:10.37,2013-03-28 09:05:00,
2013-03-28 04:10:00,40.3,32.3,30.17,ENE,64,2.0,8.0,73,0.00,OVC,,0.00,WeatherDisplay:10.37,2013-03-28 09:10:00,
2013-03-28 04:20:00,40.1,32.1,30.17,ENE,66,2.0,7.0,73,0.00,OVC,,0.00,WeatherDisplay:10.37,2013-03-28 09:20:00,
2013-03-28 04:25:00,40.1,32.5,30.17,ENE,65,1.0,8.0,74,0.00,OVC,,0.00,WeatherDisplay:10.37,2013-03-28 09:25:00,
2013-03-28 04:30:00,40.1,32.5,30.17,ENE,63,2.0,5.0,74,0.00,OVC,,0.00,WeatherDisplay:10.37,2013-03-28 09:30:00,
2013-03-28 04:35:00,40.0,32.4,30.17,ENE,66,2.0,6.0,74,0.00,OVC,,0.00,WeatherDisplay:10.37,2013-03-28 09:35:00,
2013-03-28 04:40:00,40.0,32.4,30.17,ENE,68,2.0,6.0,74,0.00,OVC,,0.00,WeatherDisplay:10.37,2013-03-28 09:40:00,
2013-03-28 04:50:00,40.0,32.4,30.17,ENE,62,1.0,7.0,74,0.00,OVC,,0.00,WeatherDisplay:10.37,2013-03-28 09:50:00,
2013-03-28 04:55:00,40.0,32.4,30.17,ENE,74,2.0,7.0,74,0.00,OVC,,0.00,WeatherDisplay:10.37,2013-03-28 09:55:00,
2013-03-28 05:00:00,40.0,32.4,30.17,East,81,2.0,5.0,74,0.00,OVC,,0.00,WeatherDisplay:10.37,2013-03-28 10:00:00,
2013-03-28 05:05:00,39.8,32.5,30.17,ENE,75,2.0,5.0,75,0.00,CLR,,0.00,WeatherDisplay:10.37,2013-03-28 10:05:00,
2013-03-28 05:10:00,39.8,32.2,30.17,ENE,69,1.0,8.0,74,0.00,CLR,,0.00,WeatherDisplay:10.37,2013-03-28 10:10:00,
2013-03-28 05:15:00,39.7,32.4,30.17,ENE,67,2.0,7.0,75,0.00,CLR,,0.00,WeatherDisplay:10.37,2013-03-28 10:15:00,
2013-03-28 05:20:00,39.5,32.2,30.17,ENE,59,2.0,6.0,75,0.00,CLR,,0.00,WeatherDisplay:10.37,2013-03-28 10:20:00,
2013-03-28 05:25:00,39.3,32.0,30.17,ENE,66,2.0,7.0,75,0.00,CLR,,0.00,WeatherDisplay:10.37,2013-03-28 10:25:00,
2013-03-28 05:30:00,39.0,31.7,30.17,ENE,65,2.0,5.0,75,0.00,CLR,,0.00,WeatherDisplay:10.37,2013-03-28 10:30:00,
2013-03-28 05:40:00,38.6,32.0,30.17,ENE,60,1.0,6.0,77,0.00,CLR,,0.00,WeatherDisplay:10.37,2013-03-28 10:40:00,
2013-03-28 05:45:00,38.3,31.8,30.17,ENE,75,1.0,7.0,77,0.00,CLR,,0.00,WeatherDisplay:10.37,2013-03-28 10:45:00,
2013-03-28 05:50:00,38.1,31.6,30.17,ENE,57,1.0,7.0,77,0.00,CLR,,0.00,WeatherDisplay:10.37,2013-03-28 10:50:00,
2013-03-28 05:55:00,38.0,31.4,30.17,NE,52,1.0,5.0,77,0.00,CLR,,0.00,WeatherDisplay:10.37,2013-03-28 10:55:00,
2013-03-28 06:00:00,37.7,31.5,30.17,ENE,62,1.0,5.0,78,0.00,CLR,,0.00,WeatherDisplay:10.37,2013-03-28 11:00:00,
2013-03-28 06:05:00,37.6,31.3,30.17,ENE,68,1.0,5.0,78,0.00,CLR,,0.00,WeatherDisplay:10.37,2013-03-28 11:05:00,
2013-03-28 06:10:00,37.5,31.3,30.17,ENE,69,2.0,5.0,78,0.00,CLR,,0.00,WeatherDisplay:10.37,2013-03-28 11:10:00,
2013-03-28 06:15:00,37.6,31.3,30.17,ENE,65,2.0,5.0,78,0.00,CLR,,0.00,WeatherDisplay:10.37,2013-03-28 11:15:00,
2013-03-28 06:20:00,37.4,31.5,30.18,ENE,58,1.0,5.0,79,0.00,CLR,,0.00,WeatherDisplay:10.37,2013-03-28 11:20:00,
2013-03-28 06:30:00,37.3,31.1,30.17,ENE,64,1.0,5.0,78,0.00,CLR,,0.00,WeatherDisplay:10.37,2013-03-28 11:30:00,
2013-03-28 06:35:00,37.1,31.2,30.17,ENE,64,1.0,5.0,79,0.00,CLR,,0.00,WeatherDisplay:10.37,2013-03-28 11:35:00,
2013-03-28 06:40:00,37.1,31.5,30.18,ENE,69,1.0,4.0,80,0.00,CLR,,0.00,WeatherDisplay:10.37,2013-03-28 11:40:00,
2013-03-28 06:50:00,36.9,30.9,30.18,ENE,68,1.0,4.0,79,0.00,CLR,,0.00,WeatherDisplay:10.37,2013-03-28 11:50:00,
2013-03-28 06:55:00,36.8,31.2,30.17,ENE,68,1.0,4.0,80,0.00,CLR,,0.00,WeatherDisplay:10.37,2013-03-28 11:55:00,
2013-03-28 07:00:00,36.7,31.1,30.18,ENE,72,1.0,4.0,80,0.00,CLR,,0.00,WeatherDisplay:10.37,2013-03-28 12:00:00,
2013-03-28 07:10:00,36.6,31.0,30.18,ENE,71,1.0,5.0,80,0.00,FEW,,0.00,WeatherDisplay:10.37,2013-03-28 12:10:00,
2013-03-28 07:15:00,36.6,31.3,30.18,ENE,75,1.0,6.0,81,0.00,FEW,,0.00,WeatherDisplay:10.37,2013-03-28 12:15:00,
2013-03-28 07:20:00,36.6,31.0,30.18,ENE,75,0.0,4.0,80,0.00,FEW,,0.00,WeatherDisplay:10.37,2013-03-28 12:20:00,
2013-03-28 07:30:00,36.5,31.3,30.18,ENE,72,2.0,6.0,81,0.00,FEW,,0.00,WeatherDisplay:10.37,2013-03-28 12:30:00,
2013-03-28 07:35:00,36.5,31.3,30.18,ENE,73,2.0,5.0,81,0.00,FEW,,0.00,WeatherDisplay:10.37,2013-03-28 12:35:00,
2013-03-28 07:40:00,36.6,31.6,30.19,ENE,74,1.0,7.0,82,0.00,FEW,,0.00,WeatherDisplay:10.37,2013-03-28 12:40:00,
2013-03-28 07:50:00,36.9,31.6,30.18,ENE,70,1.0,5.0,81,0.00,FEW,,0.00,WeatherDisplay:10.37,2013-03-28 12:50:00,
2013-03-28 07:55:00,37.1,32.1,30.18,ENE,68,3.0,7.0,82,0.00,FEW,,0.00,WeatherDisplay:10.37,2013-03-28 12:55:00,
2013-03-28 08:00:00,37.3,32.0,30.19,ENE,77,1.0,6.0,81,0.00,FEW,,0.00,WeatherDisplay:10.37,2013-03-28 13:00:00,
2013-03-28 08:10:00,37.8,32.5,30.19,ENE,64,1.0,6.0,81,0.00,FEW,,0.00,WeatherDisplay:10.37,2013-03-28 13:10:00,
2013-03-28 08:15:00,38.3,32.7,30.19,ENE,74,3.0,8.0,80,0.00,FEW,,0.00,WeatherDisplay:10.37,2013-03-28 13:15:00,
2013-03-28 08:20:00,38.8,33.2,30.19,ENE,77,2.0,5.0,80,0.00,FEW,,0.00,WeatherDisplay:10.37,2013-03-28 13:20:00,
2013-03-28 08:30:00,39.6,33.3,30.19,ENE,78,2.0,6.0,78,0.00,CLR,,0.00,WeatherDisplay:10.37,2013-03-28 13:30:00,
2013-03-28 08:35:00,39.9,33.2,30.19,ENE,74,5.0,9.0,77,0.00,CLR,,0.00,WeatherDisplay:10.37,2013-03-28 13:35:00,
2013-03-28 08:40:00,40.2,33.5,30.19,ENE,69,3.0,8.0,77,0.00,CLR,,0.00,WeatherDisplay:10.37,2013-03-28 13:40:00,
2013-03-28 08:50:00,41.0,34.0,30.19,East,87,3.0,10.0,76,0.00,CLR,,0.00,WeatherDisplay:10.37,2013-03-28 13:50:00,
2013-03-28 08:55:00,41.4,34.1,30.20,East,96,2.0,6.0,75,0.00,CLR,,0.00,WeatherDisplay:10.37,2013-03-28 13:55:00,
2013-03-28 09:00:00,41.7,34.4,30.19,East,93,2.0,7.0,75,0.00,CLR,,0.00,WeatherDisplay:10.37,2013-03-28 14:00:00,
2013-03-28 09:10:00,42.6,34.5,30.19,ENE,71,3.0,8.0,73,0.00,CLR,,0.00,WeatherDisplay:10.37,2013-03-28 14:10:00,
2013-03-28 09:15:00,43.1,34.6,30.19,ENE,67,3.0,9.0,72,0.00,CLR,,0.00,WeatherDisplay:10.37,2013-03-28 14:15:00,
2013-03-28 09:20:00,43.6,34.8,30.19,ENE,75,2.0,5.0,71,0.00,CLR,,0.00,WeatherDisplay:10.37,2013-03-28 14:20:00,
2013-03-28 09:25:00,44.1,35.3,30.19,East,91,2.0,7.0,71,0.00,CLR,,0.00,WeatherDisplay:10.37,2013-03-28 14:25:00,
2013-03-28 09:30:00,44.7,35.5,30.19,East,85,2.0,6.0,70,0.00,CLR,,0.00,WeatherDisplay:10.37,2013-03-28 14:30:00,
2013-03-28 09:40:00,45.8,35.8,30.19,ENE,75,2.0,9.0,68,0.00,CLR,,0.00,WeatherDisplay:10.37,2013-03-28 14:40:00,
2013-03-28 09:50:00,46.3,36.4,30.19,East,86,1.0,8.0,68,0.00,CLR,,0.00,WeatherDisplay:10.37,2013-03-28 14:50:00,
2013-03-28 09:55:00,46.8,36.0,30.19,East,100,2.0,8.0,66,0.00,CLR,,0.00,WeatherDisplay:10.37,2013-03-28 14:55:00,
2013-03-28 10:00:00,47.1,36.3,30.18,East,92,3.0,11.0,66,0.00,CLR,,0.00,WeatherDisplay:10.37,2013-03-28 15:00:00,
2013-03-28 10:10:00,47.2,36.0,30.18,ENE,76,1.0,8.0,65,0.00,CLR,,0.00,WeatherDisplay:10.37,2013-03-28 15:10:00,
2013-03-28 10:20:00,48.0,36.8,30.18,ESE,103,1.0,7.0,65,0.00,CLR,,0.00,WeatherDisplay:10.37,2013-03-28 15:20:00,
2013-03-28 10:25:00,48.5,37.3,30.18,East,87,1.0,6.0,65,0.00,CLR,,0.00,WeatherDisplay:10.37,2013-03-28 15:25:00,
2013-03-28 10:30:00,49.1,37.4,30.19,ENE,76,3.0,8.0,64,0.00,CLR,,0.00,WeatherDisplay:10.37,2013-03-28 15:30:00,
2013-03-28 10:35:00,49.6,38.0,30.18,East,93,1.0,7.0,64,0.00,CLR,,0.00,WeatherDisplay:10.37,2013-03-28 15:35:00,
2013-03-28 10:40:00,50.0,37.9,30.18,ENE,74,2.0,8.0,63,0.00,CLR,,0.00,WeatherDisplay:10.37,2013-03-28 15:40:00,
2013-03-28 10:45:00,50.2,38.1,30.18,ENE,64,2.0,7.0,63,0.00,CLR,,0.00,WeatherDisplay:10.37,2013-03-28 15:45:00,
2013-03-28 10:50:00,50.3,37.8,30.19,ENE,60,2.0,5.0,62,0.00,CLR,,0.00,WeatherDisplay:10.37,2013-03-28 15:50:00,
2013-03-28 10:55:00,50.6,37.6,30.19,ENE,57,3.0,7.0,61,0.00,CLR,,0.00,WeatherDisplay:10.37,2013-03-28 15:55:00,
2013-03-28 11:00:00,50.9,38.3,30.19,NE,42,1.0,7.0,62,0.00,CLR,,0.00,WeatherDisplay:10.37,2013-03-28 16:00:00,
2013-03-28 11:05:00,51.1,38.1,30.19,ENE,63,2.0,6.0,61,0.00,CLR,,0.00,WeatherDisplay:10.37,2013-03-28 16:05:00,
2013-03-28 11:10:00,51.3,37.9,30.18,ESE,109,1.0,6.0,60,0.00,CLR,,0.00,WeatherDisplay:10.37,2013-03-28 16:10:00,
2013-03-28 11:15:00,51.9,38.5,30.19,East,99,1.0,7.0,60,0.00,CLR,,0.00,WeatherDisplay:10.37,2013-03-28 16:15:00,
2013-03-28 11:20:00,52.7,39.2,30.18,East,95,2.0,6.0,60,0.00,CLR,,0.00,WeatherDisplay:10.37,2013-03-28 16:20:00,
2013-03-28 11:25:00,53.1,39.1,30.18,East,96,1.0,6.0,59,0.00,CLR,,0.00,WeatherDisplay:10.37,2013-03-28 16:25:00,
2013-03-28 11:30:00,53.7,38.8,30.18,ESE,114,1.0,5.0,57,0.00,CLR,,0.00,WeatherDisplay:10.37,2013-03-28 16:30:00,
2013-03-28 11:35:00,54.1,39.2,30.18,SE,125,1.0,5.0,57,0.00,CLR,,0.00,WeatherDisplay:10.37,2013-03-28 16:35:00,
2013-03-28 11:40:00,54.3,38.4,30.18,SE,134,1.0,3.0,55,0.00,CLR,,0.00,WeatherDisplay:10.37,2013-03-28 16:40:00,
2013-03-28 11:45:00,54.1,37.8,30.18,South,191,1.0,6.0,54,0.00,CLR,,0.00,WeatherDisplay:10.37,2013-03-28 16:45:00,
2013-03-28 11:50:00,54.3,39.4,30.18,SSE,168,2.0,6.0,57,0.00,CLR,,0.00,WeatherDisplay:10.37,2013-03-28 16:50:00,
2013-03-28 11:55:00,54.5,39.6,30.19,NE,44,1.0,6.0,57,0.00,CLR,,0.00,WeatherDisplay:10.37,2013-03-28 16:55:00,
2013-03-28 12:00:00,54.9,38.6,30.19,East,88,2.0,9.0,54,0.00,CLR,,0.00,WeatherDisplay:10.37,2013-03-28 17:00:00,
2013-03-28 12:05:00,55.1,39.2,30.18,East,101,2.0,7.0,55,0.00,CLR,,0.00,WeatherDisplay:10.37,2013-03-28 17:05:00,
2013-03-28 12:10:00,55.2,39.3,30.19,East,80,0.0,4.0,55,0.00,CLR,,0.00,WeatherDisplay:10.37,2013-03-28 17:10:00,
2013-03-28 12:15:00,55.4,39.5,30.18,ESE,114,2.0,7.0,55,0.00,CLR,,0.00,WeatherDisplay:10.37,2013-03-28 17:15:00,
2013-03-28 12:20:00,55.7,39.8,30.18,ESE,117,1.0,4.0,55,0.00,CLR,,0.00,WeatherDisplay:10.37,2013-03-28 17:20:00,
2013-03-28 12:30:00,56.2,40.2,30.17,NNE,26,3.0,6.0,55,0.00,CLR,,0.00,WeatherDisplay:10.37,2013-03-28 17:30:00,
2013-03-28 12:35:00,56.7,40.7,30.17,NE,48,2.0,5.0,55,0.00,CLR,,0.00,WeatherDisplay:10.37,2013-03-28 17:35:00,
2013-03-28 12:40:00,56.9,39.9,30.17,NE,47,2.0,7.0,53,0.00,CLR,,0.00,WeatherDisplay:10.37,2013-03-28 17:40:00,
2013-03-28 12:50:00,57.1,39.1,30.17,ENE,57,0.0,8.0,51,0.00,CLR,,0.00,WeatherDisplay:10.37,2013-03-28 17:50:00,
2013-03-28 12:55:00,57.3,39.8,30.17,East,95,1.0,8.0,52,0.00,CLR,,0.00,WeatherDisplay:10.37,2013-03-28 17:55:00,
2013-03-28 13:00:00,57.8,41.7,30.16,East,82,3.0,9.0,55,0.00,CLR,,0.00,WeatherDisplay:10.37,2013-03-28 18:00:00,
2013-03-28 13:10:00,58.3,38.7,30.16,East,90,2.0,6.0,48,0.00,CLR,,0.00,WeatherDisplay:10.37,2013-03-28 18:10:00,
2013-03-28 13:15:00,58.3,38.2,30.16,East,87,5.0,8.0,47,0.00,CLR,,0.00,WeatherDisplay:10.37,2013-03-28 18:15:00,
2013-03-28 13:20:00,58.4,38.8,30.16,East,99,2.0,8.0,48,0.00,CLR,,0.00,WeatherDisplay:10.37,2013-03-28 18:20:00,
2013-03-28 13:30:00,59.0,39.8,30.16,NE,39,2.0,7.0,49,0.00,CLR,,0.00,WeatherDisplay:10.37,2013-03-28 18:30:00,
2013-03-28 13:35:00,59.3,40.7,30.16,NE,36,2.0,6.0,50,0.00,CLR,,0.00,WeatherDisplay:10.37,2013-03-28 18:35:00,
2013-03-28 13:40:00,59.5,38.7,30.17,NE,54,0.0,2.0,46,0.00,CLR,,0.00,WeatherDisplay:10.37,2013-03-28 18:40:00,
2013-03-28 13:50:00,59.8,39.5,30.16,ENE,76,1.0,8.0,47,0.00,CLR,,0.00,WeatherDisplay:10.37,2013-03-28 18:50:00,
2013-03-28 13:55:00,60.3,41.0,30.16,ENE,64,2.0,7.0,49,0.00,CLR,,0.00,WeatherDisplay:10.37,2013-03-28 18:55:00,
2013-03-28 14:00:00,60.6,41.3,30.16,NE,53,5.0,12.0,49,0.00,CLR,,0.00,WeatherDisplay:10.37,2013-03-28 19:00:00,
2013-03-28 14:05:00,60.6,39.7,30.15,ENE,67,0.0,4.0,46,0.00,CLR,,0.00,WeatherDisplay:10.37,2013-03-28 19:05:00,
2013-03-28 14:10:00,60.3,38.9,30.15,SE,128,2.0,5.0,45,0.00,CLR,,0.00,WeatherDisplay:10.37,2013-03-28 19:10:00,
2013-03-28 14:15:00,60.4,41.2,30.15,East,87,3.0,7.0,49,0.00,CLR,,0.00,WeatherDisplay:10.37,2013-03-28 19:15:00,
2013-03-28 14:20:00,60.9,41.6,30.15,NE,51,3.0,8.0,49,0.00,CLR,,0.00,WeatherDisplay:10.37,2013-03-28 19:20:00,
2013-03-28 14:30:00,61.4,40.4,30.15,SSE,155,3.0,7.0,46,0.00,CLR,,0.00,WeatherDisplay:10.37,2013-03-28 19:30:00,
2013-03-28 14:35:00,61.7,41.3,30.14,South,184,1.0,6.0,47,0.00,CLR,,0.00,WeatherDisplay:10.37,2013-03-28 19:35:00,
2013-03-28 14:40:00,62.2,41.7,30.14,ENE,67,1.0,6.0,47,0.00,CLR,,0.00,WeatherDisplay:10.37,2013-03-28 19:40:00,
2013-03-28 14:50:00,62.8,41.7,30.14,ENE,66,3.0,9.0,46,0.00,CLR,,0.00,WeatherDisplay:10.37,2013-03-28 19:50:00,
2013-03-28 14:55:00,63.0,42.5,30.14,East,88,3.0,6.0,47,0.00,CLR,,0.00,WeatherDisplay:10.37,2013-03-28 19:55:00,
2013-03-28 15:00:00,63.3,41.0,30.14,SSW,200,2.0,4.0,44,0.00,CLR,,0.00,WeatherDisplay:10.37,2013-03-28 20:00:00,
2013-03-28 15:10:00,62.9,41.2,30.13,East,90,3.0,7.0,45,0.00,CLR,,0.00,WeatherDisplay:10.37,2013-03-28 20:10:00,
2013-03-28 15:20:00,63.6,42.9,30.13,ENE,60,6.0,7.0,47,0.00,CLR,,0.00,WeatherDisplay:10.37,2013-03-28 20:20:00,
2013-03-28 15:30:00,63.2,42.1,30.12,NE,55,2.0,7.0,46,0.00,CLR,,0.00,WeatherDisplay:10.37,2013-03-28 20:30:00,
2013-03-28 15:35:00,63.1,42.0,30.12,ESE,110,3.0,8.0,46,0.00,CLR,,0.00,WeatherDisplay:10.37,2013-03-28 20:35:00,
2013-03-28 15:40:00,63.1,40.8,30.12,ESE,104,1.0,6.0,44,0.00,CLR,,0.00,WeatherDisplay:10.37,2013-03-28 20:40:00,
2013-03-28 15:50:00,63.1,42.0,30.12,SSE,153,1.0,8.0,46,0.00,CLR,,0.00,WeatherDisplay:10.37,2013-03-28 20:50:00,
2013-03-28 15:55:00,63.2,41.5,30.12,South,176,1.0,4.0,45,0.00,CLR,,0.00,WeatherDisplay:10.37,2013-03-28 20:55:00,
2013-03-28 16:00:00,63.2,41.5,30.12,South,175,1.0,6.0,45,0.00,CLR,,0.00,WeatherDisplay:10.37,2013-03-28 21:00:00,
2013-03-28 16:10:00,63.6,42.4,30.12,East,86,3.0,5.0,46,0.00,CLR,,0.00,WeatherDisplay:10.37,2013-03-28 21:10:00,
2013-03-28 16:15:00,63.7,41.9,30.12,East,84,0.0,3.0,45,0.00,CLR,,0.00,WeatherDisplay:10.37,2013-03-28 21:15:00,
2013-03-28 16:20:00,64.2,43.6,30.12,SSE,160,3.0,6.0,47,0.00,CLR,,0.00,WeatherDisplay:10.37,2013-03-28 21:20:00,
2013-03-28 16:30:00,64.6,43.3,30.12,SW,215,1.0,3.0,46,0.00,CLR,,0.00,WeatherDisplay:10.37,2013-03-28 21:30:00,
2013-03-28 16:35:00,64.6,42.2,30.12,South,180,3.0,6.0,44,0.00,CLR,,0.00,WeatherDisplay:10.37,2013-03-28 21:35:00,
2013-03-28 16:40:00,64.7,42.2,30.12,South,171,2.0,7.0,44,0.00,CLR,,0.00,WeatherDisplay:10.37,2013-03-28 21:40:00,
2013-03-28 16:50:00,64.5,43.2,30.12,East,88,2.0,6.0,46,0.00,CLR,,0.00,WeatherDisplay:10.37,2013-03-28 21:50:00,
2013-03-28 16:55:00,64.7,43.4,30.11,NE,34,1.0,5.0,46,0.00,CLR,,0.00,WeatherDisplay:10.37,2013-03-28 21:55:00,
2013-03-28 17:00:00,64.9,43.0,30.12,NNW,346,0.0,3.0,45,0.00,CLR,,0.00,WeatherDisplay:10.37,2013-03-28 22:00:00,
2013-03-28 17:10:00,64.9,42.5,30.12,NE,47,0.0,6.0,44,0.00,CLR,,0.00,WeatherDisplay:10.37,2013-03-28 22:10:00,
2013-03-28 17:15:00,64.7,42.9,30.12,ENE,59,1.0,4.0,45,0.00,CLR,,0.00,WeatherDisplay:10.37,2013-03-28 22:15:00,
2013-03-28 17:20:00,64.1,42.4,30.12,ENE,66,0.0,4.0,45,0.00,CLR,,0.00,WeatherDisplay:10.37,2013-03-28 22:20:00,
2013-03-28 17:30:00,63.4,42.8,30.12,ENE,63,3.0,6.0,47,0.00,CLR,,0.00,WeatherDisplay:10.37,2013-03-28 22:30:00,
2013-03-28 17:35:00,63.2,42.7,30.12,ENE,70,0.0,5.0,47,0.00,CLR,,0.00,WeatherDisplay:10.37,2013-03-28 22:35:00,
2013-03-28 17:40:00,63.1,42.0,30.12,East,92,1.0,4.0,46,0.00,CLR,,0.00,WeatherDisplay:10.37,2013-03-28 22:40:00,
2013-03-28 17:50:00,62.6,40.9,30.11,South,176,0.0,2.0,45,0.00,CLR,,0.00,WeatherDisplay:10.37,2013-03-28 22:50:00,
2013-03-28 17:55:00,62.2,41.1,30.12,SSE,167,1.0,4.0,46,0.00,CLR,,0.00,WeatherDisplay:10.37,2013-03-28 22:55:00,
2013-03-28 18:00:00,61.9,41.9,30.11,SSE,164,0.0,3.0,48,0.00,CLR,,0.00,WeatherDisplay:10.37,2013-03-28 23:00:00,
2013-03-28 18:10:00,61.4,42.1,30.11,SE,132,1.0,8.0,49,0.00,CLR,,0.00,WeatherDisplay:10.37,2013-03-28 23:10:00,
2013-03-28 18:15:00,61.4,41.5,30.11,ESE,118,1.0,5.0,48,0.00,CLR,,0.00,WeatherDisplay:10.37,2013-03-28 23:15:00,
2013-03-28 18:20:00,61.4,41.5,30.11,ESE,112,0.0,3.0,48,0.00,CLR,,0.00,WeatherDisplay:10.37,2013-03-28 23:20:00,
2013-03-28 18:30:00,61.1,41.2,30.11,ESE,113,0.0,2.0,48,0.00,CLR,,0.00,WeatherDisplay:10.37,2013-03-28 23:30:00,
2013-03-28 18:35:00,60.9,41.0,30.11,ESE,112,1.0,3.0,48,0.00,CLR,,0.00,WeatherDisplay:10.37,2013-03-28 23:35:00,
2013-03-28 18:40:00,60.8,41.0,30.11,ESE,117,1.0,4.0,48,0.00,CLR,,0.00,WeatherDisplay:10.37,2013-03-28 23:40:00,
2013-03-28 18:50:00,60.6,41.3,30.11,East,99,1.0,3.0,49,0.00,CLR,,0.00,WeatherDisplay:10.37,2013-03-28 23:50:00,
2013-03-28 18:55:00,60.3,41.6,30.11,East,81,2.0,7.0,50,0.00,CLR,,0.00,WeatherDisplay:10.37,2013-03-28 23:55:00,
2013-03-28 19:00:00,60.0,40.8,30.11,East,94,0.0,7.0,49,0.00,CLR,,0.00,WeatherDisplay:10.37,2013-03-29 00:00:00,
2013-03-28 19:10:00,59.5,40.8,30.11,SE,131,2.0,5.0,50,0.00,CLR,,0.00,WeatherDisplay:10.37,2013-03-29 00:10:00,
2013-03-28 19:15:00,59.5,41.3,30.11,SE,125,1.0,5.0,51,0.00,CLR,,0.00,WeatherDisplay:10.37,2013-03-29 00:15:00,
2013-03-28 19:20:00,59.3,42.1,30.11,ESE,116,1.0,9.0,53,0.00,CLR,,0.00,WeatherDisplay:10.37,2013-03-29 00:20:00,
2013-03-28 19:30:00,58.9,41.8,30.12,SE,142,0.0,5.0,53,0.00,CLR,,0.00,WeatherDisplay:10.37,2013-03-29 00:30:00,
2013-03-28 19:35:00,58.7,42.1,30.11,ESE,123,0.0,3.0,54,0.00,CLR,,0.00,WeatherDisplay:10.37,2013-03-29 00:35:00,
2013-03-28 19:40:00,58.3,42.2,30.12,ESE,117,1.0,3.0,55,0.00,CLR,,0.00,WeatherDisplay:10.37,2013-03-29 00:40:00,
2013-03-28 19:50:00,57.2,42.1,30.12,East,89,0.0,4.0,57,0.00,CLR,,0.00,WeatherDisplay:10.37,2013-03-29 00:50:00,
2013-03-28 19:55:00,56.6,42.0,30.12,ENE,67,0.0,1.0,58,0.00,CLR,,0.00,WeatherDisplay:10.37,2013-03-29 00:55:00,
2013-03-28 20:00:00,56.0,41.4,30.12,ENE,64,0.0,3.0,58,0.00,CLR,,0.00,WeatherDisplay:10.37,2013-03-29 01:00:00,
2013-03-28 20:05:00,55.3,41.7,30.13,ENE,64,0.0,0.0,60,0.00,CLR,,0.00,WeatherDisplay:10.37,2013-03-29 01:05:00,
2013-03-28 20:10:00,54.8,41.1,30.13,ENE,64,0.0,0.0,60,0.00,CLR,,0.00,WeatherDisplay:10.37,2013-03-29 01:10:00,
2013-03-28 20:20:00,53.6,40.9,30.12,ENE,64,0.0,0.0,62,0.00,CLR,,0.00,WeatherDisplay:10.37,2013-03-29 01:20:00,
2013-03-28 20:30:00,52.5,40.7,30.12,ENE,64,0.0,0.0,64,0.00,FEW,,0.00,WeatherDisplay:10.37,2013-03-29 01:30:00,
2013-03-28 20:35:00,52.1,40.7,30.12,ENE,64,0.0,0.0,65,0.00,FEW,,0.00,WeatherDisplay:10.37,2013-03-29 01:35:00,
2013-03-28 20:40:00,51.9,40.9,30.13,ENE,64,0.0,2.0,66,0.00,FEW,,0.00,WeatherDisplay:10.37,2013-03-29 01:40:00,
2013-03-28 20:45:00,51.6,41.0,30.13,ENE,64,0.0,0.0,67,0.00,FEW,,0.00,WeatherDisplay:10.37,2013-03-29 01:45:00,
2013-03-28 20:55:00,51.3,40.8,30.14,ENE,64,0.0,0.0,67,0.00,FEW,,0.00,WeatherDisplay:10.37,2013-03-29 01:55:00,
2013-03-28 21:00:00,51.2,41.0,30.14,ENE,64,0.0,0.0,68,0.00,FEW,,0.00,WeatherDisplay:10.37,2013-03-29 02:00:00,
2013-03-28 21:05:00,51.2,41.4,30.14,ENE,64,0.0,2.0,69,0.00,SCT,,0.00,WeatherDisplay:10.37,2013-03-29 02:05:00,
2013-03-28 21:10:00,51.2,41.4,30.14,ENE,64,0.0,1.0,69,0.00,SCT,,0.00,WeatherDisplay:10.37,2013-03-29 02:10:00,
2013-03-28 21:15:00,51.6,41.8,30.14,ENE,78,2.0,5.0,69,0.00,SCT,,0.00,WeatherDisplay:10.37,2013-03-29 02:15:00,
2013-03-28 21:20:00,52.0,42.5,30.14,ENE,75,1.0,4.0,70,0.00,SCT,,0.00,WeatherDisplay:10.37,2013-03-29 02:20:00,
2013-03-28 21:25:00,52.4,42.9,30.14,ENE,65,0.0,4.0,70,0.00,SCT,,0.00,WeatherDisplay:10.37,2013-03-29 02:25:00,
2013-03-28 21:30:00,52.7,42.8,30.14,NE,54,1.0,5.0,69,0.00,SCT,,0.00,WeatherDisplay:10.37,2013-03-29 02:30:00,
2013-03-28 21:40:00,53.1,42.8,30.14,NE,47,1.0,4.0,68,0.00,SCT,,0.00,WeatherDisplay:10.37,2013-03-29 02:40:00,
2013-03-28 21:45:00,53.2,42.9,30.15,NE,49,1.0,3.0,68,0.00,SCT,,0.00,WeatherDisplay:10.37,2013-03-29 02:45:00,
2013-03-28 21:50:00,53.4,42.7,30.14,NE,54,1.0,4.0,67,0.00,SCT,,0.00,WeatherDisplay:10.37,2013-03-29 02:50:00,
2013-03-28 21:55:00,53.5,42.9,30.15,ENE,69,2.0,6.0,67,0.00,FEW,,0.00,WeatherDisplay:10.37,2013-03-29 02:55:00,
2013-03-28 22:00:00,53.7,43.0,30.15,ENE,78,1.0,6.0,67,0.00,FEW,,0.00,WeatherDisplay:10.37,2013-03-29 03:00:00,
2013-03-28 22:05:00,53.9,43.2,30.15,East,79,1.0,4.0,67,0.00,BKN,,0.00,WeatherDisplay:10.37,2013-03-29 03:05:00,
2013-03-28 22:10:00,53.9,43.2,30.15,ENE,70,2.0,5.0,67,0.00,BKN,,0.00,WeatherDisplay:10.37,2013-03-29 03:10:00,
2013-03-28 22:20:00,53.8,43.1,30.15,NE,39,3.0,7.0,67,0.00,BKN,,0.00,WeatherDisplay:10.37,2013-03-29 03:20:00,
2013-03-28 22:30:00,54.1,43.0,30.15,ENE,57,3.0,7.0,66,0.00,BKN,,0.00,WeatherDisplay:10.37,2013-03-29 03:30:00,
2013-03-28 22:40:00,54.3,43.1,30.15,NE,45,2.0,7.0,66,0.00,BKN,,0.00,WeatherDisplay:10.37,2013-03-29 03:40:00,
2013-03-28 22:50:00,54.4,42.9,30.17,NNE,21,3.0,6.0,65,0.00,BKN,,0.00,WeatherDisplay:10.37,2013-03-29 03:50:00,
2013-03-28 22:55:00,54.5,43.0,30.16,NNE,25,2.0,7.0,65,0.00,BKN,,0.00,WeatherDisplay:10.37,2013-03-29 03:55:00,
2013-03-28 23:00:00,54.7,42.8,30.17,NNE,31,3.0,9.0,64,0.00,BKN,,0.00,WeatherDisplay:10.37,2013-03-29 04:00:00,
2013-03-28 23:05:00,54.7,42.8,30.16,NE,40,2.0,8.0,64,0.00,BKN,,0.00,WeatherDisplay:10.37,2013-03-29 04:05:00,
2013-03-28 23:10:00,54.7,42.8,30.16,NE,46,3.0,7.0,64,0.00,BKN,,0.00,WeatherDisplay:10.37,2013-03-29 04:10:00,
2013-03-28 23:15:00,54.6,43.0,30.16,NE,43,3.0,8.0,65,0.00,BKN,,0.00,WeatherDisplay:10.37,2013-03-29 04:15:00,
2013-03-28 23:25:00,54.6,42.7,30.16,NE,37,3.0,6.0,64,0.00,BKN,,0.00,WeatherDisplay:10.37,2013-03-29 04:25:00,
2013-03-28 23:30:00,54.4,42.5,30.15,NE,49,3.0,9.0,64,0.00,BKN,,0.00,WeatherDisplay:10.37,2013-03-29 04:30:00,
2013-03-28 23:40:00,54.2,43.0,30.15,NE,47,2.0,5.0,66,0.00,BKN,,0.00,WeatherDisplay:10.37,2013-03-29 04:40:00,
2013-03-28 23:50:00,53.9,42.4,30.15,NE,47,5.0,8.0,65,0.00,BKN,,0.00,WeatherDisplay:10.37,2013-03-29 04:50:00,
2013-03-28 23:55:00,53.8,42.7,30.16,NE,51,1.0,5.0,66,0.00,BKN,,0.00,WeatherDisplay:10.37,2013-03-29 04:55:00,